Weather History for Defiance, OH

Change the Weather History Date:

Thursday, December 5, 2013

  Actual Average Record
Temperature  
Mean Temperature 44 °F -  
Max Temperature 59 °F 37 °F 66 °F (2001)
Min Temperature 30 °F 23 °F -1 °F (1976)
Degree Days  
Heating Degree Days 20    
Moisture  
Dew Point 33 °F    
Average Humidity 72    
Maximum Humidity 84    
Minimum Humidity 64    
Precipitation  
Precipitation 0.00 in - - ()
Sea Level Pressure  
Sea Level Pressure 29.93 in    
Wind  
Wind Speed 10 mph (WSW)    
Max Wind Speed 14 mph    
Max Gust Speed 23 mph    
Visibility 10 miles    
Events      
Averages and records for this station are not official NWS values.
T = Trace of Precipitation, MM = Missing Value Source: NWS Daily Summary

Daily Weather History Graph

Daily Weather History Graph

Search for Another Location

Airport:

Trip Planner

Search our weather history database for the weather conditions in past years. The results will help you decide how hot, cold, wet, or windy it might be!

Date:

Astronomy

Dec. 05, 2013 Rise Set
Actual Time 7:48 AM EST 5:08 PM EST
Civil Twilight 7:17 AM EST 5:39 PM EST
Nautical Twilight 6:42 AM EST 6:13 PM EST
Astronomical Twilight 6:09 AM EST 6:47 PM EST
Moon 10:07 AM EST (12/5) 8:29 PM EST (12/5)
Length of Visible Light 10h 21m
Length of Day
9h 19m
Waxing Crescent, 10% of the Moon is Illuminated
Dec 5
Waxing Crescent
Dec 9
First Quarter
Dec 17
Full
Dec 25
Last Quarter
Jan 1
New

Hourly Weather History & Observations

Time (EST) Temp. Windchill Dew Point Humidity Pressure Visibility Wind Dir Wind Speed Gust Speed Precip Events Conditions
12:53 AM 59.0 °F - 53.1 °F 81% 29.66 in 9.0 mi SSW 12.7 mph - N/A   Overcast
1:26 AM 59.0 °F - 53.6 °F 82% 29.66 in 9.0 mi SSW 12.7 mph - N/A   Overcast
1:53 AM 59.0 °F - 53.1 °F 81% 29.67 in 10.0 mi SSW 13.8 mph - N/A   Overcast
2:53 AM 57.9 °F - 53.1 °F 84% 29.69 in 9.0 mi SW 9.2 mph - N/A   Overcast
3:53 AM 57.9 °F - 52.0 °F 81% 29.70 in 9.0 mi SSW 12.7 mph 19.6 mph N/A   Overcast
4:00 AM 57.2 °F - 51.8 °F 82% 29.70 in 9.0 mi SW 12.7 mph 19.6 mph N/A   Overcast
4:53 AM 55.0 °F - 48.0 °F 77% 29.73 in 7.0 mi WSW 10.4 mph 23.0 mph N/A   Overcast
5:53 AM 48.9 °F - 42.1 °F 77% 29.77 in 8.0 mi WSW 10.4 mph 18.4 mph N/A   Overcast
6:31 AM 46.4 °F 42.4 °F 39.2 °F 76% 29.78 in 9.0 mi WSW 8.1 mph 17.3 mph N/A   Scattered Clouds
6:53 AM 45.0 °F 39.3 °F 37.9 °F 76% 29.81 in 10.0 mi West 11.5 mph 20.7 mph N/A   Clear
7:39 AM 42.8 °F 38.0 °F 35.6 °F 76% 29.83 in 10.0 mi WSW 8.1 mph - N/A   Mostly Cloudy
7:53 AM 42.1 °F 36.6 °F 35.1 °F 76% 29.85 in 10.0 mi WSW 9.2 mph 17.3 mph N/A   Overcast
8:11 AM 42.8 °F 37.0 °F 33.8 °F 70% 29.86 in 9.0 mi West 10.4 mph 18.4 mph N/A   Scattered Clouds
8:29 AM 42.8 °F 37.0 °F 33.8 °F 70% 29.87 in 9.0 mi WSW 10.4 mph - N/A   Mostly Cloudy
8:53 AM 42.1 °F 35.2 °F 35.1 °F 76% 29.88 in 10.0 mi WSW 12.7 mph 19.6 mph N/A   Overcast
9:49 AM 39.2 °F 33.0 °F 32.0 °F 75% 29.91 in 10.0 mi WSW 9.2 mph - N/A   Scattered Clouds
9:53 AM 39.9 °F 33.9 °F 32.0 °F 73% 29.92 in 10.0 mi WSW 9.2 mph 19.6 mph N/A   Scattered Clouds
10:05 AM 39.2 °F 32.5 °F 32.0 °F 75% 29.91 in 10.0 mi WSW 10.4 mph 21.9 mph N/A   Mostly Cloudy
10:53 AM 39.0 °F 32.8 °F 30.9 °F 73% 29.94 in 10.0 mi WSW 9.2 mph 18.4 mph N/A   Overcast
11:53 AM 37.0 °F 31.6 °F 26.1 °F 65% 29.96 in 10.0 mi West 6.9 mph 18.4 mph N/A   Mostly Cloudy
12:53 PM 37.0 °F 31.0 °F 27.0 °F 67% 29.97 in 10.0 mi West 8.1 mph - N/A   Mostly Cloudy
1:36 PM 37.4 °F 31.4 °F 26.6 °F 65% 29.98 in 10.0 mi West 8.1 mph - N/A   Scattered Clouds
1:53 PM 37.0 °F 32.4 °F 26.1 °F 65% 29.96 in 10.0 mi Variable 5.8 mph - N/A   Scattered Clouds
2:03 PM 37.4 °F 32.1 °F 26.6 °F 65% 29.97 in 10.0 mi Variable 6.9 mph 17.3 mph N/A   Mostly Cloudy
2:53 PM 36.0 °F 30.3 °F 26.1 °F 67% 29.99 in 10.0 mi Variable 6.9 mph - N/A   Mostly Cloudy
3:29 PM 35.6 °F 29.2 °F 24.8 °F 65% 30.00 in 10.0 mi West 8.1 mph - N/A   Scattered Clouds
3:53 PM 36.0 °F 30.3 °F 25.0 °F 64% 30.02 in 10.0 mi Variable 6.9 mph - N/A   Scattered Clouds
4:53 PM 35.1 °F 31.0 °F 24.1 °F 64% 30.07 in 10.0 mi Variable 4.6 mph - N/A   Mostly Cloudy
5:53 PM 35.1 °F 30.1 °F 24.1 °F 64% 30.10 in 10.0 mi West 5.8 mph - N/A   Mostly Cloudy
6:53 PM 34.0 °F 31.0 °F 24.1 °F 67% 30.10 in 10.0 mi Variable 3.5 mph - N/A   Overcast
7:42 PM 33.8 °F 29.6 °F 24.8 °F 70% 30.12 in 10.0 mi West 4.6 mph - N/A   Overcast
7:53 PM 34.0 °F 29.8 °F 24.1 °F 67% 30.14 in 10.0 mi Variable 4.6 mph - N/A   Overcast
8:09 PM 33.8 °F 28.6 °F 24.8 °F 70% 30.12 in 10.0 mi Variable 5.8 mph - N/A   Overcast
8:53 PM 33.1 °F 26.9 °F 21.9 °F 64% 30.12 in 10.0 mi NW 6.9 mph - N/A   Overcast
9:53 PM 32.0 °F 26.4 °F 21.0 °F 64% 30.15 in 10.0 mi WNW 5.8 mph - N/A   Overcast
10:53 PM 30.9 °F 24.3 °F 21.0 °F 67% 30.18 in 10.0 mi WNW 6.9 mph - N/A   Overcast
11:53 PM 30.9 °F 27.5 °F 21.0 °F 67% 30.19 in 10.0 mi Variable 3.5 mph - N/A   Overcast